Tracking 27112 objects as of 27-Mar-2023
HD Live streaming from Space Station
objects crossing your sky now

VANGUARD 3

Track VANGUARD 3 now!
10-day predictions
VANGUARD 3 is classified as:


NORAD ID: 20
Int'l Code: 1959-007A
Perigee: 515.3 km
Apogee: 3,256.1 km
Inclination: 33.4 °
Period: 124.4 minutes
Semi major axis: 8256 km
RCS: 0.654 m2 (medium)
Launch date: September 18, 1959
Source: United States (US)
Launch site: AIR FORCE EASTERN TEST RANGE (AFETR)
Your satellite tracking list
Your tracking list is empty




NASA's NSSDC Master Catalog

Two Line Element Set (TLE):
1 00020U 59007A   23085.89528938  .00004049  00000-0  16315-2 0  9998
2 00020  33.3512 173.2524 1659759 240.4343 102.0770 11.57158114347798
Source of the keplerian elements: AFSPC